Flag for France Weather past 2 weeks in Paris, France

54 °F


Feels Like: 53 °F
Forecast: 49 / 60 °F
Wind: 5 mph from Southwest

Location: Villacoublay

Current Time: Oct 7, 2015 at 10:13:11 PM

Latest Report: Oct 7, 2015 at 10:00 PM

Visibility: N/A

Pressure: 30.07 "Hg

Humidity: 82%

Dew point: 48 °F

Location of ParisLocation

Historic Weather in Paris — Graph


Paris temperature yesterday

Maximum temperature yesterday: 66 °F (at 3:00 PM)
Minimum temperature yesterday: 59 °F (at 12:00 AM)
Average temperature yesterday: 61 °F

Past Weeks' High & Low Weather Summary

High70 °F (Oct 3, 4:30 PM)100% (Sep 23, 12:30 AM)30.51 "Hg (Sep 23, 12:30 AM)
Low46 °F (Oct 1, 8:00 AM)39% (Oct 1, 5:30 PM)29.56 "Hg (Oct 6, 7:00 AM)
Average56 °F74%30.11 "Hg
* Reported Sep 22 9:00 PM — Oct 7 9:00 PM, Paris, Weather by CustomWeather, © 2015

Note: Actual official high and low records may vary slightly from our data, if they occured in-between our weather recording intervals... More about our weather records


Paris weather history for previous 24 hours

Time TempWeatherWind HumidityBarometerVisibility
9:00 PM
Wed, Oct 7
55 °FOvercast.7 mph77%30.07 "HgN/A
8:30 PM55 °FOvercast.5 mph77%30.07 "HgN/A
8:00 PM55 °FSunny.6 mph77%30.04 "Hg10 mi
7:30 PM55 °FSunny.6 mph77%30.04 "Hg10 mi
7:00 PM55 °FOvercast.3 mph77%30.04 "HgN/A
6:30 PM55 °FMore clouds than sun.6 mph77%30.01 "HgN/A
6:00 PM57 °FSunny.9 mph67%30.01 "Hg10 mi
5:30 PM57 °FOvercast.N/A67%30.01 "HgN/A
5:00 PM55 °FBroken clouds.10 mph77%30.01 "HgN/A
4:30 PM57 °FOvercast.6 mph72%30.01 "HgN/A
4:00 PM57 °FMore clouds than sun.8 mph72%29.98 "HgN/A
3:30 PM59 °FMore clouds than sun.9 mph68%29.98 "HgN/A
3:00 PM59 °FBroken clouds.12 mph63%29.98 "HgN/A
2:30 PM59 °FMostly cloudy.10 mph68%29.98 "HgN/A
2:00 PM59 °FBroken clouds.10 mph72%29.98 "HgN/A
1:30 PM59 °FMore clouds than sun.12 mph72%29.95 "HgN/A
1:00 PM59 °FMostly cloudy.13 mph68%29.95 "HgN/A
12:30 PM59 °FBroken clouds.12 mph72%29.95 "HgN/A
12:00 PM57 °FPartly sunny.13 mph77%29.95 "HgN/A
11:30 AM57 °FPartly sunny.N/A77%29.95 "HgN/A
11:00 AM57 °FScattered clouds.N/A77%29.92 "HgN/A
10:30 AM55 °FPartly sunny.14 mph82%29.92 "HgN/A
10:00 AM54 °FPassing clouds.13 mph88%29.92 "HgN/A
9:30 AM54 °FPartly sunny.12 mph88%29.89 "HgN/A
9:00 AM54 °FBroken clouds.10 mph88%29.89 "HgN/A
8:30 AM54 °FPartly cloudy.10 mph88%29.86 "HgN/A
8:00 AM54 °FPassing clouds.N/A88%29.86 "HgN/A
7:30 AM54 °FPassing clouds.13 mph94%29.83 "HgN/A
7:00 AM54 °FMostly cloudy.12 mph88%29.83 "HgN/A
6:30 AM54 °FMostly cloudy.13 mph94%29.83 "HgN/A
6:00 AM54 °FMostly cloudy.13 mph94%29.80 "HgN/A
5:30 AM54 °FLight rain. Mostly cloudy.13 mph94%29.80 "HgN/A
5:00 AM54 °FDrizzle. Mostly cloudy.13 mph94%29.80 "HgN/A
4:30 AM55 °FDrizzle. Overcast.14 mph88%29.77 "HgN/A
4:00 AM55 °FOvercast.14 mph88%29.77 "HgN/A
3:30 AM55 °FOvercast.14 mph88%29.77 "HgN/A
3:00 AM55 °FMostly cloudy.N/A88%29.77 "HgN/A
2:30 AM57 °FMostly cloudy.13 mph88%29.74 "HgN/A
2:00 AM57 °FMostly cloudy.14 mph88%29.74 "HgN/A
1:30 AM57 °FMostly cloudy.14 mph88%29.74 "HgN/A
1:00 AM57 °FPartly cloudy.14 mph88%29.71 "HgN/A
12:30 AM57 °FMostly cloudy.12 mph94%29.71 "HgN/A
12:00 AM59 °FPassing clouds.15 mph88%29.68 "HgN/A
11:30 PM
Tue, Oct 6
59 °FMostly cloudy.13 mph88%29.68 "HgN/A
11:00 PM59 °FPassing clouds.16 mph88%29.68 "HgN/A
10:30 PM59 °FMostly cloudy.14 mph94%29.65 "HgN/A
10:00 PM59 °FPartly cloudy.N/A94%29.65 "HgN/A
Weather by CustomWeather, © 2015

See weather overviewHow to use our weather pages